Private Wetterstation Wechselburg
Wetterdaten: Donnerstag, 08.12.2016
Datum Zeit Temp. +2m Bodentemp. Temp.+5cm Temp. Wind Windchill X Diff Temp. Feuchte +2m Feuchte +5cm Sonnenschein Luftdruck Regen Wind Richtung Richtung Sonnenschein Taupunkt Windchill Windben
08.12.2016 00:00 5,2 C 1,9 C 3,9 C 5,4 C 5,4 C 0,2 C 76 % 84 % 0 % 1031,4 hPa 0,0 l/m 3,4 km/h (1 Bft) SW 225 0 min 1,3 C 5,4 C 3,7 km/h (1 Bft)
08.12.2016 00:05 5,3 C 1,9 C 3,9 C 5,5 C 5,5 C 0,2 C 76 % 84 % 0 % 1031,4 hPa 0,0 l/m 2,6 km/h (1 Bft) S-SW 202 0 min 1,4 C 5,5 C 2,9 km/h (1 Bft)
08.12.2016 00:10 5,3 C 1,9 C 4,0 C 5,5 C 5,5 C 0,2 C 76 % 84 % 0 % 1031,4 hPa 0,0 l/m 2,7 km/h (1 Bft) S 180 0 min 1,4 C 5,5 C 8,9 km/h (2 Bft)
08.12.2016 00:15 5,5 C 1,9 C 4,0 C 5,4 C 5,2 C 0,0 C 75 % 84 % 0 % 1031,4 hPa 0,0 l/m 4,3 km/h (1 Bft) S-SW 202 0 min 1,4 C 5,2 C 10,5 km/h (2 Bft)
08.12.2016 00:20 5,4 C 1,9 C 4,0 C 5,2 C 4,9 C 0,0 C 75 % 84 % 0 % 1031,4 hPa 0,0 l/m 4,8 km/h (1 Bft) S-SO 157 0 min 1,3 C 4,0 C 5,6 km/h (1 Bft)
08.12.2016 00:25 5,5 C 1,9 C 4,1 C 5,4 C 5,1 C 0,0 C 75 % 83 % 0 % 1031,4 hPa 0,0 l/m 4,5 km/h (1 Bft) S 180 0 min 1,4 C 5,1 C 6,0 km/h (2 Bft)
08.12.2016 00:30 5,5 C 1,9 C 4,1 C 5,6 C 5,6 C 0,1 C 75 % 83 % 0 % 1031,4 hPa 0,0 l/m 3,4 km/h (1 Bft) W-SW 247 0 min 1,4 C 5,6 C 6,1 km/h (2 Bft)
08.12.2016 00:35 5,5 C 2,0 C 4,1 C 5,7 C 5,7 C 0,2 C 75 % 83 % 0 % 1031,4 hPa 0,0 l/m 2,4 km/h (1 Bft) W-SW 247 0 min 1,4 C 5,7 C 2,3 km/h (1 Bft)
08.12.2016 00:40 5,5 C 2,0 C 4,1 C 5,7 C 5,7 C 0,2 C 75 % 83 % 0 % 1031,4 hPa 0,0 l/m 2,9 km/h (1 Bft) S-SO 157 0 min 1,4 C 5,7 C 3,1 km/h (1 Bft)
08.12.2016 00:45 5,5 C 2,0 C 4,1 C 5,7 C 5,7 C 0,2 C 75 % 83 % 0 % 1031,4 hPa 0,0 l/m 3,2 km/h (1 Bft) SO 135 0 min 1,4 C 5,7 C 8,7 km/h (2 Bft)
08.12.2016 00:50 5,5 C 2,0 C 4,1 C 5,6 C 5,6 C 0,1 C 75 % 83 % 0 % 1031,4 hPa 0,0 l/m 2,9 km/h (1 Bft) S-SO 157 0 min 1,4 C 5,6 C 3,1 km/h (1 Bft)
08.12.2016 00:55 5,5 C 2,0 C 4,0 C 5,5 C 5,4 C 0,0 C 75 % 83 % 0 % 1031,4 hPa 0,0 l/m 1,9 km/h (1 Bft) S 180 0 min 1,4 C 5,4 C 0,0 km/h (0 Bft)
08.12.2016 01:00 5,4 C 2,0 C 3,9 C 5,4 C 5,4 C 0,0 C 75 % 83 % 0 % 1030,7 hPa 0,0 l/m 1,4 km/h (1 Bft) S 180 0 min 1,3 C 5,4 C 2,4 km/h (1 Bft)
08.12.2016 01:05 5,5 C 2,0 C 4,0 C 5,5 C 5,4 C 0,0 C 75 % 83 % 0 % 1030,7 hPa 0,0 l/m 2,1 km/h (1 Bft) S-SO 157 0 min 1,4 C 5,4 C 11,6 km/h (2 Bft)
08.12.2016 01:10 5,5 C 2,0 C 3,9 C 5,4 C 5,3 C 0,0 C 75 % 83 % 0 % 1030,7 hPa 0,0 l/m 2,6 km/h (1 Bft) S-SO 157 0 min 1,4 C 5,3 C 0,0 km/h (0 Bft)
08.12.2016 01:15 5,3 C 2,0 C 3,8 C 5,3 C 5,2 C 0,0 C 75 % 83 % 0 % 1030,7 hPa 0,0 l/m 1,4 km/h (1 Bft) SW 225 0 min 1,2 C 5,2 C 0,0 km/h (0 Bft)
08.12.2016 01:20 5,3 C 2,0 C 3,8 C 5,3 C 5,2 C 0,0 C 75 % 83 % 0 % 1030,8 hPa 0,0 l/m 1,3 km/h (1 Bft) N-NW 337 0 min 1,2 C 5,2 C 0,0 km/h (0 Bft)
08.12.2016 01:25 5,2 C 2,0 C 3,6 C 5,2 C 5,2 C 0,0 C 75 % 83 % 0 % 1030,8 hPa 0,0 l/m 1,0 km/h (0 Bft) SW 225 0 min 1,1 C 5,2 C 1,8 km/h (1 Bft)
08.12.2016 01:30 5,2 C 2,0 C 3,5 C 5,1 C 5,0 C 0,0 C 75 % 83 % 0 % 1030,8 hPa 0,0 l/m 0,3 km/h (0 Bft) SW 225 0 min 1,1 C 5,0 C 0,0 km/h (0 Bft)
08.12.2016 01:35 5,1 C 2,0 C 3,2 C 5,0 C 4,8 C 0,0 C 75 % 83 % 0 % 1030,8 hPa 0,0 l/m 1,1 km/h (1 Bft) SW 225 0 min 1,0 C 4,8 C 3,4 km/h (1 Bft)
08.12.2016 01:40 5,1 C 2,0 C 3,3 C 5,0 C 4,9 C 0,0 C 75 % 84 % 0 % 1030,8 hPa 0,0 l/m 2,1 km/h (1 Bft) SW 225 0 min 1,0 C 4,9 C 2,6 km/h (1 Bft)
08.12.2016 01:45 5,1 C 2,0 C 3,5 C 5,0 C 4,8 C 0,0 C 75 % 84 % 0 % 1030,8 hPa 0,0 l/m 2,1 km/h (1 Bft) W 270 0 min 1,0 C 4,8 C 0,0 km/h (0 Bft)
08.12.2016 01:50 5,0 C 2,0 C 3,3 C 4,9 C 4,7 C 0,0 C 75 % 84 % 0 % 1030,8 hPa 0,0 l/m 1,3 km/h (1 Bft) W-SW 247 0 min 0,9 C 4,7 C 2,1 km/h (1 Bft)
08.12.2016 01:55 4,9 C 2,0 C 3,1 C 4,8 C 4,5 C 0,0 C 75 % 84 % 0 % 1030,8 hPa 0,0 l/m 0,6 km/h (0 Bft) SW 225 0 min 0,8 C 4,5 C 4,8 km/h (1 Bft)
08.12.2016 02:00 4,9 C 2,0 C 3,1 C 4,7 C 4,4 C 0,0 C 75 % 84 % 0 % 1030,9 hPa 0,0 l/m 0,8 km/h (0 Bft) W-SW 247 0 min 0,8 C 4,4 C 2,6 km/h (1 Bft)
08.12.2016 02:05 4,8 C 2,0 C 3,1 C 4,6 C 4,3 C 0,0 C 76 % 85 % 0 % 1030,9 hPa 0,0 l/m 1,4 km/h (1 Bft) W 270 0 min 0,9 C 4,3 C 3,9 km/h (1 Bft)
08.12.2016 02:10 4,8 C 2,0 C 3,1 C 4,6 C 4,3 C 0,0 C 76 % 85 % 0 % 1030,9 hPa 0,0 l/m 1,9 km/h (1 Bft) S-SW 202 0 min 0,9 C 4,3 C 5,3 km/h (1 Bft)
08.12.2016 02:15 4,9 C 2,0 C 3,2 C 4,7 C 4,3 C 0,0 C 76 % 85 % 0 % 1030,9 hPa 0,0 l/m 2,4 km/h (1 Bft) NW 315 0 min 1,0 C 4,3 C 0,0 km/h (0 Bft)
08.12.2016 02:20 4,9 C 2,2 C 3,1 C 4,7 C 4,3 C 0,0 C 76 % 85 % 0 % 1030,9 hPa 0,0 l/m 2,4 km/h (1 Bft) W-SW 247 0 min 1,0 C 4,3 C 3,1 km/h (1 Bft)
08.12.2016 02:25 4,9 C 2,2 C 3,0 C 4,7 C 4,3 C 0,0 C 76 % 84 % 0 % 1030,9 hPa 0,0 l/m 1,4 km/h (1 Bft) SO 135 0 min 1,0 C 4,3 C 0,0 km/h (0 Bft)
08.12.2016 02:30 4,8 C 2,2 C 3,1 C 4,5 C 4,0 C 0,0 C 76 % 85 % 0 % 1030,9 hPa 0,0 l/m 0,8 km/h (0 Bft) S 180 0 min 0,9 C 4,0 C 1,6 km/h (1 Bft)
08.12.2016 02:35 4,7 C 2,2 C 3,1 C 4,5 C 4,0 C 0,0 C 76 % 85 % 0 % 1030,9 hPa 0,0 l/m 1,1 km/h (1 Bft) W-SW 247 0 min 0,8 C 4,0 C 2,3 km/h (1 Bft)
08.12.2016 02:40 4,7 C 2,2 C 3,1 C 4,5 C 4,0 C 0,0 C 76 % 85 % 0 % 1030,6 hPa 0,0 l/m 1,1 km/h (1 Bft) W-SW 247 0 min 0,8 C 4,0 C 0,0 km/h (0 Bft)
08.12.2016 02:45 4,5 C 2,2 C 2,9 C 4,3 C 3,9 C 0,0 C 76 % 85 % 0 % 1030,6 hPa 0,0 l/m 1,3 km/h (1 Bft) S-SO 157 0 min 0,6 C 3,9 C 4,8 km/h (1 Bft)
08.12.2016 02:50 4,7 C 2,2 C 3,1 C 4,5 C 4,0 C 0,0 C 77 % 85 % 0 % 1030,6 hPa 0,0 l/m 2,1 km/h (1 Bft) O-NO 67 0 min 1,0 C 4,0 C 2,1 km/h (1 Bft)
08.12.2016 02:55 4,8 C 2,2 C 3,2 C 4,6 C 4,1 C 0,0 C 76 % 85 % 0 % 1030,6 hPa 0,0 l/m 1,9 km/h (1 Bft) S-SO 157 0 min 0,9 C 4,1 C 4,0 km/h (1 Bft)
08.12.2016 03:00 4,8 C 2,2 C 3,2 C 4,5 C 4,0 C 0,0 C 76 % 85 % 0 % 1030,9 hPa 0,0 l/m 1,3 km/h (1 Bft) S-SO 157 0 min 0,9 C 4,0 C 4,3 km/h (1 Bft)
08.12.2016 03:05 4,8 C 2,2 C 3,3 C 4,6 C 4,1 C 0,0 C 76 % 85 % 0 % 1030,9 hPa 0,0 l/m 1,9 km/h (1 Bft) SW 225 0 min 0,9 C 4,1 C 0,0 km/h (0 Bft)
08.12.2016 03:10 4,8 C 2,2 C 3,2 C 4,6 C 4,1 C 0,0 C 76 % 84 % 0 % 1030,9 hPa 0,0 l/m 1,9 km/h (1 Bft) W-SW 247 0 min 0,9 C 4,1 C 5,6 km/h (1 Bft)
08.12.2016 03:15 4,8 C 2,2 C 3,2 C 4,6 C 4,2 C 0,0 C 76 % 84 % 0 % 1030,9 hPa 0,0 l/m 1,6 km/h (1 Bft) NW 315 0 min 0,9 C 4,2 C 1,6 km/h (1 Bft)
08.12.2016 03:20 4,9 C 2,2 C 3,3 C 4,7 C 4,3 C 0,0 C 76 % 84 % 0 % 1030,9 hPa 0,0 l/m 2,3 km/h (1 Bft) NO 45 0 min 1,0 C 4,3 C 5,1 km/h (1 Bft)
08.12.2016 03:25 4,9 C 2,2 C 3,2 C 4,7 C 4,3 C 0,0 C 76 % 84 % 0 % 1030,9 hPa 0,0 l/m 2,6 km/h (1 Bft) S-SO 157 0 min 1,0 C 4,3 C 5,0 km/h (1 Bft)
08.12.2016 03:30 4,9 C 2,2 C 3,2 C 4,7 C 4,4 C 0,0 C 76 % 84 % 0 % 1030,9 hPa 0,0 l/m 2,3 km/h (1 Bft) SW 225 0 min 1,0 C 4,4 C 2,3 km/h (1 Bft)
08.12.2016 03:35 4,9 C 2,2 C 3,1 C 4,7 C 4,3 C 0,0 C 76 % 84 % 0 % 1030,9 hPa 0,0 l/m 1,6 km/h (1 Bft) W-NW 292 0 min 1,0 C 4,3 C 4,0 km/h (1 Bft)
08.12.2016 03:40 4,8 C 2,2 C 3,1 C 4,6 C 4,2 C 0,0 C 76 % 85 % 0 % 1030,8 hPa 0,0 l/m 1,6 km/h (1 Bft) S 180 0 min 0,9 C 4,2 C 5,1 km/h (1 Bft)
08.12.2016 03:45 4,8 C 2,2 C 3,3 C 4,6 C 4,2 C 0,0 C 76 % 85 % 0 % 1030,8 hPa 0,0 l/m 2,3 km/h (1 Bft) SO 135 0 min 0,9 C 4,2 C 0,0 km/h (0 Bft)
08.12.2016 03:50 4,7 C 2,2 C 3,2 C 4,5 C 4,2 C 0,0 C 76 % 84 % 0 % 1030,8 hPa 0,0 l/m 2,4 km/h (1 Bft) W-SW 247 0 min 0,8 C 4,2 C 3,2 km/h (1 Bft)
08.12.2016 03:55 4,8 C 2,2 C 3,3 C 4,6 C 4,3 C 0,0 C 76 % 84 % 0 % 1030,8 hPa 0,0 l/m 2,4 km/h (1 Bft) S-SO 157 0 min 0,9 C 4,3 C 4,3 km/h (1 Bft)
08.12.2016 04:00 4,7 C 2,2 C 3,5 C 4,6 C 4,3 C 0,0 C 76 % 84 % 0 % 1029,9 hPa 0,0 l/m 2,7 km/h (1 Bft) W-SW 247 0 min 0,8 C 4,3 C 1,8 km/h (1 Bft)
08.12.2016 04:05 4,9 C 2,2 C 3,5 C 4,7 C 4,4 C 0,0 C 76 % 84 % 0 % 1029,9 hPa 0,0 l/m 3,1 km/h (1 Bft) W-SW 247 0 min 1,0 C 4,4 C 5,6 km/h (1 Bft)
08.12.2016 04:10 4,9 C 2,2 C 3,5 C 4,8 C 4,6 C 0,0 C 75 % 84 % 0 % 1029,9 hPa 0,0 l/m 2,6 km/h (1 Bft) SW 225 0 min 0,8 C 4,6 C 2,7 km/h (1 Bft)
08.12.2016 04:15 4,8 C 2,2 C 3,4 C 4,7 C 4,6 C 0,0 C 76 % 84 % 0 % 1029,9 hPa 0,0 l/m 1,6 km/h (1 Bft) S-SO 157 0 min 0,9 C 4,6 C 3,2 km/h (1 Bft)
08.12.2016 04:20 4,9 C 2,3 C 3,6 C 4,8 C 4,6 C 0,0 C 76 % 84 % 0 % 1029,9 hPa 0,0 l/m 1,8 km/h (1 Bft) O-SO 112 0 min 1,0 C 4,6 C 2,6 km/h (1 Bft)
08.12.2016 04:25 4,9 C 2,3 C 3,8 C 4,9 C 4,8 C 0,0 C 76 % 83 % 0 % 1029,9 hPa 0,0 l/m 2,3 km/h (1 Bft) SW 225 0 min 1,0 C 4,8 C 7,1 km/h (2 Bft)
08.12.2016 04:30 4,9 C 2,3 C 3,9 C 4,9 C 4,9 C 0,0 C 75 % 83 % 0 % 1029,9 hPa 0,0 l/m 2,3 km/h (1 Bft) SW 225 0 min 0,8 C 4,9 C 5,0 km/h (1 Bft)
08.12.2016 04:35 4,9 C 2,3 C 3,9 C 5,0 C 5,0 C 0,1 C 75 % 83 % 0 % 1029,9 hPa 0,0 l/m 2,4 km/h (1 Bft) W 270 0 min 0,8 C 5,0 C 6,1 km/h (2 Bft)
08.12.2016 04:40 5,1 C 2,3 C 3,9 C 5,1 C 5,1 C 0,0 C 75 % 83 % 0 % 1029,9 hPa 0,0 l/m 2,9 km/h (1 Bft) S 180 0 min 1,0 C 5,1 C 2,7 km/h (1 Bft)
08.12.2016 04:45 5,1 C 2,3 C 4,0 C 5,2 C 5,2 C 0,1 C 75 % 83 % 0 % 1029,9 hPa 0,0 l/m 3,2 km/h (1 Bft) W-SW 247 0 min 1,0 C 5,2 C 2,3 km/h (1 Bft)
08.12.2016 04:50 5,1 C 2,3 C 4,0 C 5,2 C 5,2 C 0,1 C 75 % 83 % 0 % 1029,9 hPa 0,0 l/m 2,9 km/h (1 Bft) O-NO 67 0 min 1,0 C 5,2 C 0,0 km/h (0 Bft)
08.12.2016 04:55 5,1 C 2,3 C 4,0 C 5,2 C 5,2 C 0,1 C 75 % 82 % 0 % 1029,9 hPa 0,0 l/m 2,7 km/h (1 Bft) S 180 0 min 1,0 C 5,2 C 12,6 km/h (3 Bft)
08.12.2016 05:00 5,1 C 2,3 C 4,0 C 5,2 C 5,2 C 0,1 C 75 % 82 % 0 % 1029,9 hPa 0,0 l/m 2,6 km/h (1 Bft) S 180 0 min 1,0 C 5,2 C 2,6 km/h (1 Bft)
08.12.2016 05:05 5,2 C 2,3 C 4,1 C 5,1 C 4,8 C 0,0 C 75 % 82 % 0 % 1029,9 hPa 0,0 l/m 4,0 km/h (1 Bft) SW 225 0 min 1,1 C 4,8 C 3,9 km/h (1 Bft)
08.12.2016 05:10 5,2 C 2,3 C 4,1 C 5,1 C 4,8 C 0,0 C 74 % 82 % 0 % 1029,9 hPa 0,0 l/m 4,0 km/h (1 Bft) S 180 0 min 1,0 C 4,8 C 4,5 km/h (1 Bft)
08.12.2016 05:15 5,0 C 2,3 C 3,9 C 5,1 C 5,1 C 0,1 C 74 % 82 % 0 % 1029,9 hPa 0,0 l/m 3,4 km/h (1 Bft) SW 225 0 min 0,8 C 5,1 C 3,1 km/h (1 Bft)
08.12.2016 05:20 5,1 C 2,3 C 3,9 C 5,1 C 5,1 C 0,0 C 75 % 82 % 0 % 1030,4 hPa 0,0 l/m 2,6 km/h (1 Bft) SW 225 0 min 1,0 C 5,1 C 6,1 km/h (2 Bft)
08.12.2016 05:25 5,1 C 2,3 C 3,9 C 5,1 C 5,1 C 0,0 C 75 % 83 % 0 % 1030,4 hPa 0,0 l/m 2,4 km/h (1 Bft) S 180 0 min 1,0 C 5,1 C 3,5 km/h (1 Bft)
08.12.2016 05:30 5,1 C 2,3 C 3,9 C 5,1 C 5,1 C 0,0 C 75 % 82 % 0 % 1030,4 hPa 0,0 l/m 2,1 km/h (1 Bft) W 270 0 min 1,0 C 5,1 C 6,1 km/h (2 Bft)
08.12.2016 05:35 5,0 C 2,3 C 3,7 C 5,0 C 5,0 C 0,0 C 75 % 82 % 0 % 1030,4 hPa 0,0 l/m 1,9 km/h (1 Bft) W 270 0 min 0,9 C 5,0 C 2,1 km/h (1 Bft)
08.12.2016 05:40 4,9 C 2,3 C 3,6 C 4,9 C 4,9 C 0,0 C 75 % 82 % 0 % 1029,6 hPa 0,0 l/m 2,3 km/h (1 Bft) W-NW 292 0 min 0,8 C 4,9 C 0,0 km/h (0 Bft)
08.12.2016 05:45 4,9 C 2,4 C 3,6 C 4,9 C 4,9 C 0,0 C 75 % 82 % 0 % 1029,6 hPa 0,0 l/m 1,9 km/h (1 Bft) NW 315 0 min 0,8 C 4,9 C 2,1 km/h (1 Bft)
08.12.2016 05:50 4,9 C 2,4 C 3,6 C 4,9 C 4,8 C 0,0 C 75 % 82 % 0 % 1029,6 hPa 0,0 l/m 1,8 km/h (1 Bft) W-SW 247 0 min 0,8 C 4,8 C 3,9 km/h (1 Bft)
08.12.2016 05:55 4,8 C 2,4 C 3,6 C 4,8 C 4,7 C 0,0 C 75 % 82 % 0 % 1029,6 hPa 0,0 l/m 1,4 km/h (1 Bft) S-SW 202 0 min 0,8 C 4,7 C 1,9 km/h (1 Bft)
08.12.2016 06:00 4,8 C 2,4 C 3,4 C 4,7 C 4,6 C 0,0 C 75 % 82 % 0 % 1029,6 hPa 0,0 l/m 1,1 km/h (1 Bft) SO 135 0 min 0,8 C 4,6 C 2,1 km/h (1 Bft)
08.12.2016 06:05 4,8 C 2,4 C 3,6 C 4,7 C 4,6 C 0,0 C 75 % 83 % 0 % 1029,6 hPa 0,0 l/m 1,8 km/h (1 Bft) S 180 0 min 0,8 C 4,6 C 4,2 km/h (1 Bft)
08.12.2016 06:10 4,9 C 2,4 C 3,7 C 4,8 C 4,7 C 0,0 C 75 % 83 % 0 % 1029,6 hPa 0,0 l/m 2,9 km/h (1 Bft) S-SO 157 0 min 0,8 C 4,7 C 6,0 km/h (2 Bft)
08.12.2016 06:15 4,9 C 2,4 C 3,7 C 4,8 C 4,7 C 0,0 C 75 % 82 % 0 % 1029,6 hPa 0,0 l/m 3,1 km/h (1 Bft) NW 315 0 min 0,8 C 4,7 C 5,1 km/h (1 Bft)
08.12.2016 06:20 5,0 C 2,4 C 3,8 C 4,9 C 4,8 C 0,0 C 75 % 82 % 0 % 1030,1 hPa 0,0 l/m 2,7 km/h (1 Bft) SW 225 0 min 0,9 C 4,8 C 3,1 km/h (1 Bft)
08.12.2016 06:25 4,9 C 2,4 C 3,7 C 4,8 C 4,7 C 0,0 C 75 % 82 % 0 % 1030,1 hPa 0,0 l/m 2,6 km/h (1 Bft) S 180 0 min 0,8 C 4,7 C 3,7 km/h (1 Bft)
08.12.2016 06:30 4,9 C 2,4 C 3,7 C 4,8 C 4,6 C 0,0 C 74 % 82 % 0 % 1030,1 hPa 0,0 l/m 2,4 km/h (1 Bft) W-SW 247 0 min 0,7 C 4,6 C 3,2 km/h (1 Bft)
08.12.2016 06:35 4,9 C 2,4 C 3,6 C 4,8 C 4,5 C 0,0 C 74 % 82 % 0 % 1030,1 hPa 0,0 l/m 2,7 km/h (1 Bft) S 180 0 min 0,7 C 4,5 C 4,7 km/h (1 Bft)
08.12.2016 06:40 4,9 C 2,4 C 3,6 C 4,7 C 4,4 C 0,0 C 74 % 82 % 0 % 1030,0 hPa 0,0 l/m 3,2 km/h (1 Bft) W-SW 247 0 min 0,7 C 4,4 C 6,9 km/h (2 Bft)
08.12.2016 06:45 5,0 C 2,4 C 3,7 C 4,7 C 4,2 C 0,0 C 74 % 82 % 0 % 1030,0 hPa 0,0 l/m 3,7 km/h (1 Bft) S 180 0 min 0,8 C 4,2 C 16,4 km/h (3 Bft)
08.12.2016 06:50 5,1 C 2,4 C 3,6 C 4,7 C 4,0 C 0,0 C 74 % 82 % 0 % 1030,0 hPa 0,0 l/m 4,2 km/h (1 Bft) W-SW 247 0 min 0,9 C 4,0 C 8,2 km/h (2 Bft)
08.12.2016 06:55 5,1 C 2,4 C 3,7 C 4,7 C 4,0 C 0,0 C 74 % 82 % 0 % 1030,0 hPa 0,0 l/m 4,2 km/h (1 Bft) O-SO 112 0 min 0,9 C 4,0 C 6,0 km/h (2 Bft)
08.12.2016 07:00 4,9 C 2,4 C 3,6 C 4,6 C 4,1 C 0,0 C 74 % 82 % 0 % 1030,0 hPa 0,0 l/m 3,7 km/h (1 Bft) S-SO 157 0 min 0,7 C 4,1 C 12,1 km/h (2 Bft)
08.12.2016 07:05 5,1 C 2,4 C 3,6 C 4,6 C 3,6 C 0,0 C 74 % 82 % 0 % 1030,0 hPa 0,0 l/m 4,8 km/h (1 Bft) S 180 0 min 0,9 C 2,6 C 19,0 km/h (3 Bft)
08.12.2016 07:10 5,1 C 2,4 C 3,6 C 4,6 C 3,6 C 0,0 C 73 % 82 % 0 % 1030,0 hPa 0,0 l/m 5,1 km/h (1 Bft) O-SO 112 0 min 0,7 C 2,5 C 3,5 km/h (1 Bft)
08.12.2016 07:15 4,9 C 2,4 C 3,5 C 4,7 C 4,3 C 0,0 C 73 % 82 % 0 % 1030,0 hPa 0,0 l/m 3,1 km/h (1 Bft) NO 45 0 min 0,5 C 4,3 C 1,6 km/h (1 Bft)
08.12.2016 07:20 4,8 C 2,4 C 3,3 C 4,6 C 4,2 C 0,0 C 73 % 82 % 0 % 1030,1 hPa 0,0 l/m 2,3 km/h (1 Bft) S 180 0 min 0,4 C 4,2 C 5,6 km/h (1 Bft)
08.12.2016 07:25 4,8 C 2,4 C 3,2 C 4,5 C 4,0 C 0,0 C 74 % 82 % 0 % 1030,1 hPa 0,0 l/m 1,4 km/h (1 Bft) S 180 0 min 0,6 C 4,0 C 2,4 km/h (1 Bft)
08.12.2016 07:30 4,8 C 2,5 C 3,2 C 4,5 C 4,0 C 0,0 C 74 % 82 % 0 % 1030,1 hPa 0,0 l/m 2,4 km/h (1 Bft) S 180 0 min 0,6 C 4,0 C 5,1 km/h (1 Bft)
08.12.2016 07:35 4,8 C 2,5 C 3,1 C 4,5 C 4,0 C 0,0 C 74 % 82 % 0 % 1030,1 hPa 0,0 l/m 2,1 km/h (1 Bft) O-NO 67 0 min 0,6 C 4,0 C 2,1 km/h (1 Bft)
08.12.2016 07:40 4,8 C 2,5 C 3,3 C 4,5 C 4,0 C 0,0 C 74 % 83 % 0 % 1030,1 hPa 0,0 l/m 2,4 km/h (1 Bft) S 180 0 min 0,6 C 4,0 C 2,7 km/h (1 Bft)
08.12.2016 07:45 4,8 C 2,5 C 3,3 C 4,5 C 4,0 C 0,0 C 74 % 82 % 0 % 1030,1 hPa 0,0 l/m 1,9 km/h (1 Bft) O-SO 112 0 min 0,6 C 4,0 C 1,6 km/h (1 Bft)
08.12.2016 07:50 4,7 C 2,5 C 3,1 C 4,4 C 3,9 C 0,0 C 74 % 82 % 0 % 1030,1 hPa 0,0 l/m 1,8 km/h (1 Bft) S 180 0 min 0,5 C 3,9 C 1,8 km/h (1 Bft)
08.12.2016 07:55 4,7 C 2,5 C 3,1 C 4,4 C 3,9 C 0,0 C 74 % 83 % 0 % 1030,1 hPa 0,0 l/m 1,4 km/h (1 Bft) W-SW 247 0 min 0,5 C 3,9 C 6,1 km/h (2 Bft)
08.12.2016 08:00 4,7 C 2,5 C 3,1 C 4,4 C 3,9 C 0,0 C 75 % 83 % 0 % 1030,1 hPa 0,0 l/m 2,1 km/h (1 Bft) W-SW 247 0 min 0,7 C 3,9 C 1,9 km/h (1 Bft)
08.12.2016 08:05 4,8 C 2,5 C 3,2 C 4,5 C 3,8 C 0,0 C 75 % 83 % 0 % 1030,1 hPa 0,0 l/m 3,4 km/h (1 Bft) W-SW 247 0 min 0,8 C 3,8 C 4,2 km/h (1 Bft)
08.12.2016 08:10 4,9 C 2,5 C 3,3 C 4,6 C 3,9 C 0,0 C 74 % 83 % 0 % 1030,1 hPa 0,0 l/m 3,4 km/h (1 Bft) W-NW 292 0 min 0,7 C 3,9 C 3,4 km/h (1 Bft)
08.12.2016 08:15 4,9 C 2,5 C 3,4 C 4,6 C 4,1 C 0,0 C 74 % 83 % 0 % 1030,1 hPa 0,0 l/m 3,2 km/h (1 Bft) S 180 0 min 0,7 C 4,1 C 7,9 km/h (2 Bft)
08.12.2016 08:20 4,9 C 2,5 C 3,5 C 4,7 C 4,4 C 0,0 C 74 % 83 % 0 % 1030,0 hPa 0,0 l/m 2,9 km/h (1 Bft) N-NO 22 0 min 0,7 C 4,4 C 0,0 km/h (0 Bft)
08.12.2016 08:25 4,9 C 2,5 C 3,6 C 4,6 C 4,1 C 0,0 C 74 % 82 % 0 % 1030,0 hPa 0,0 l/m 3,7 km/h (1 Bft) W-SW 247 0 min 0,7 C 4,1 C 6,8 km/h (2 Bft)
08.12.2016 08:30 4,9 C 2,5 C 3,6 C 4,8 C 4,6 C 0,0 C 74 % 82 % 0 % 1030,0 hPa 0,0 l/m 3,1 km/h (1 Bft) O-SO 112 0 min 0,7 C 4,6 C 2,4 km/h (1 Bft)
08.12.2016 08:35 5,1 C 2,5 C 3,7 C 5,0 C 4,7 C 0,0 C 73 % 82 % 0 % 1030,0 hPa 0,0 l/m 2,9 km/h (1 Bft) SO 135 0 min 0,7 C 4,7 C 2,6 km/h (1 Bft)
08.12.2016 08:40 5,1 C 2,5 C 3,9 C 5,0 C 4,8 C 0,0 C 73 % 82 % 0 % 1029,8 hPa 0,0 l/m 2,7 km/h (1 Bft) O-NO 67 0 min 0,7 C 4,8 C 3,2 km/h (1 Bft)
08.12.2016 08:45 5,1 C 2,5 C 4,0 C 5,1 C 5,1 C 0,0 C 73 % 81 % 0 % 1029,8 hPa 0,0 l/m 2,6 km/h (1 Bft) S-SO 157 0 min 0,7 C 5,1 C 5,1 km/h (1 Bft)
08.12.2016 08:50 5,2 C 2,5 C 4,1 C 5,2 C 5,2 C 0,0 C 73 % 81 % 0 % 1029,8 hPa 0,0 l/m 2,9 km/h (1 Bft) SO 135 0 min 0,8 C 5,2 C 7,4 km/h (2 Bft)
08.12.2016 08:55 5,3 C 2,5 C 4,1 C 5,4 C 5,4 C 0,1 C 72 % 80 % 3 % 1029,8 hPa 0,0 l/m 3,1 km/h (1 Bft) S-SO 157 0 min 0,7 C 5,4 C 5,5 km/h (1 Bft)
08.12.2016 09:00 5,3 C 2,6 C 4,3 C 5,6 C 5,6 C 0,3 C 72 % 80 % 8 % 1030,3 hPa 0,0 l/m 3,1 km/h (1 Bft) SW 225 0 min 0,7 C 5,6 C 4,8 km/h (1 Bft)
08.12.2016 09:05 5,2 C 2,6 C 4,3 C 5,7 C 5,7 C 0,5 C 72 % 80 % 13 % 1030,3 hPa 0,0 l/m 3,1 km/h (1 Bft) W-SW 247 0 min 0,6 C 5,7 C 2,1 km/h (1 Bft)
08.12.2016 09:10 5,3 C 2,6 C 4,4 C 5,9 C 5,9 C 0,6 C 71 % 80 % 16 % 1030,3 hPa 0,0 l/m 3,2 km/h (1 Bft) SW 225 0 min 0,5 C 5,9 C 9,8 km/h (2 Bft)
08.12.2016 09:15 5,4 C 2,6 C 4,4 C 6,1 C 6,1 C 0,7 C 71 % 80 % 18 % 1030,3 hPa 0,0 l/m 2,4 km/h (1 Bft) O-NO 67 0 min 0,6 C 6,1 C 0,0 km/h (0 Bft)
08.12.2016 09:20 5,5 C 2,6 C 4,6 C 6,2 C 6,2 C 0,7 C 71 % 79 % 18 % 1030,1 hPa 0,0 l/m 2,6 km/h (1 Bft) SW 225 0 min 0,7 C 6,2 C 5,8 km/h (2 Bft)
08.12.2016 09:25 5,5 C 2,6 C 4,6 C 6,3 C 6,3 C 0,8 C 70 % 78 % 21 % 1030,1 hPa 0,0 l/m 2,3 km/h (1 Bft) SW 225 0 min 0,5 C 6,3 C 2,7 km/h (1 Bft)
08.12.2016 09:30 5,5 C 2,6 C 4,7 C 6,3 C 6,3 C 0,8 C 70 % 78 % 21 % 1030,1 hPa 0,0 l/m 2,4 km/h (1 Bft) N-NO 22 0 min 0,5 C 6,3 C 4,3 km/h (1 Bft)
08.12.2016 09:35 5,6 C 2,6 C 4,7 C 6,2 C 6,2 C 0,6 C 69 % 78 % 16 % 1030,1 hPa 0,0 l/m 2,7 km/h (1 Bft) SW 225 0 min 0,4 C 6,2 C 4,8 km/h (1 Bft)
08.12.2016 09:40 5,6 C 2,6 C 4,5 C 6,2 C 6,2 C 0,6 C 69 % 78 % 16 % 1030,4 hPa 0,0 l/m 2,7 km/h (1 Bft) S-SW 202 0 min 0,4 C 6,2 C 9,5 km/h (2 Bft)
08.12.2016 09:45 5,6 C 2,6 C 4,5 C 6,2 C 6,2 C 0,6 C 68 % 77 % 16 % 1030,4 hPa 0,0 l/m 3,1 km/h (1 Bft) W-SW 247 0 min 0,2 C 6,2 C 5,1 km/h (1 Bft)
08.12.2016 09:50 5,7 C 2,6 C 4,5 C 5,8 C 5,8 C 0,1 C 68 % 77 % 3 % 1030,4 hPa 0,0 l/m 4,0 km/h (1 Bft) N-NO 22 0 min 0,3 C 5,8 C 5,1 km/h (1 Bft)
08.12.2016 09:55 5,7 C 2,6 C 4,7 C 5,7 C 5,7 C 0,0 C 67 % 77 % 0 % 1030,4 hPa 0,0 l/m 4,5 km/h (1 Bft) O-SO 112 0 min 0,1 C 5,7 C 6,4 km/h (2 Bft)
08.12.2016 10:00 5,8 C 2,7 C 4,7 C 5,7 C 5,5 C 0,0 C 66 % 76 % 0 % 1030,4 hPa 0,0 l/m 4,8 km/h (1 Bft) SW 225 0 min -0,0 C 4,7 C 8,5 km/h (2 Bft)
08.12.2016 10:05 5,7 C 2,7 C 4,7 C 5,6 C 5,5 C 0,0 C 66 % 76 % 0 % 1030,4 hPa 0,0 l/m 4,5 km/h (1 Bft) W-SW 247 0 min -0,1 C 5,5 C 6,4 km/h (2 Bft)
08.12.2016 10:10 5,7 C 2,7 C 4,7 C 5,7 C 5,7 C 0,0 C 66 % 75 % 0 % 1030,4 hPa 0,0 l/m 4,2 km/h (1 Bft) S 180 0 min -0,1 C 5,7 C 5,5 km/h (1 Bft)
08.12.2016 10:15 5,7 C 2,7 C 4,6 C 5,7 C 5,6 C 0,0 C 66 % 75 % 0 % 1030,4 hPa 0,0 l/m 4,3 km/h (1 Bft) O-NO 67 0 min -0,1 C 5,6 C 1,9 km/h (1 Bft)
08.12.2016 10:20 5,7 C 2,7 C 4,7 C 5,9 C 5,9 C 0,2 C 66 % 75 % 5 % 1030,4 hPa 0,0 l/m 3,5 km/h (1 Bft) SO 135 0 min -0,1 C 5,9 C 4,0 km/h (1 Bft)
08.12.2016 10:25 5,7 C 2,7 C 4,8 C 6,2 C 6,2 C 0,5 C 66 % 74 % 13 % 1030,4 hPa 0,0 l/m 2,9 km/h (1 Bft) N-NO 22 0 min -0,1 C 6,2 C 1,9 km/h (1 Bft)
08.12.2016 10:30 5,7 C 2,7 C 4,8 C 6,2 C 6,2 C 0,5 C 65 % 74 % 13 % 1030,4 hPa 0,0 l/m 3,2 km/h (1 Bft) SO 135 0 min -0,4 C 6,2 C 10,6 km/h (2 Bft)
08.12.2016 10:35 5,9 C 2,7 C 4,9 C 6,2 C 6,2 C 0,3 C 65 % 73 % 8 % 1030,4 hPa 0,0 l/m 3,5 km/h (1 Bft) NW 315 0 min -0,2 C 6,2 C 3,9 km/h (1 Bft)
08.12.2016 10:40 5,9 C 2,7 C 5,1 C 6,5 C 6,5 C 0,6 C 64 % 73 % 16 % 1030,1 hPa 0,0 l/m 3,9 km/h (1 Bft) S-SW 202 0 min -0,4 C 6,5 C 2,3 km/h (1 Bft)
08.12.2016 10:45 6,0 C 2,7 C 5,1 C 6,7 C 6,7 C 0,7 C 64 % 73 % 18 % 1030,1 hPa 0,0 l/m 4,2 km/h (1 Bft) SW 225 0 min -0,3 C 6,7 C 3,4 km/h (1 Bft)
08.12.2016 10:50 6,0 C 2,7 C 5,2 C 6,3 C 6,3 C 0,3 C 63 % 72 % 8 % 1030,1 hPa 0,0 l/m 5,0 km/h (1 Bft) S-SO 157 0 min -0,5 C 5,6 C 10,5 km/h (2 Bft)
08.12.2016 10:55 6,1 C 2,7 C 5,3 C 6,8 C 6,8 C 0,7 C 63 % 71 % 18 % 1030,1 hPa 0,0 l/m 4,3 km/h (1 Bft) SW 225 0 min -0,4 C 6,8 C 6,1 km/h (2 Bft)
08.12.2016 11:00 6,2 C 2,7 C 5,4 C 7,3 C 7,3 C 1,1 C 63 % 71 % 29 % 1030,1 hPa 0,0 l/m 4,0 km/h (1 Bft) O 90 0 min -0,3 C 7,3 C 7,1 km/h (2 Bft)
08.12.2016 11:05 6,3 C 2,8 C 5,5 C 7,5 C 7,5 C 1,2 C 62 % 70 % 32 % 1030,1 hPa 0,0 l/m 5,3 km/h (1 Bft) S 180 0 min -0,4 C 6,8 C 5,8 km/h (2 Bft)
08.12.2016 11:10 6,4 C 2,8 C 5,6 C 7,9 C 7,9 C 1,5 C 62 % 70 % 39 % 1030,1 hPa 0,0 l/m 5,3 km/h (1 Bft) W-SW 247 0 min -0,3 C 7,3 C 6,6 km/h (2 Bft)
08.12.2016 11:15 6,4 C 2,8 C 5,6 C 8,2 C 8,2 C 1,8 C 61 % 69 % 47 % 1030,1 hPa 0,0 l/m 5,5 km/h (1 Bft) NW 315 0 min -0,6 C 7,6 C 7,6 km/h (2 Bft)
08.12.2016 11:20 6,6 C 2,8 C 5,6 C 8,2 C 8,2 C 1,6 C 61 % 69 % 42 % 1029,7 hPa 0,0 l/m 6,1 km/h (2 Bft) S-SO 157 0 min -0,4 C 7,4 C 7,6 km/h (2 Bft)
08.12.2016 11:25 6,7 C 2,8 C 5,8 C 8,7 C 8,7 C 2,0 C 61 % 69 % 53 % 1029,7 hPa 0,0 l/m 4,7 km/h (1 Bft) SW 225 0 min -0,3 C 8,4 C 5,6 km/h (1 Bft)
08.12.2016 11:30 6,7 C 2,8 C 6,0 C 9,3 C 9,3 C 2,6 C 61 % 69 % 68 % 1029,7 hPa 0,0 l/m 3,5 km/h (1 Bft) W-SW 247 0 min -0,3 C 9,3 C 3,2 km/h (1 Bft)
08.12.2016 11:35 6,9 C 2,8 C 6,1 C 9,0 C 9,0 C 2,1 C 60 % 68 % 55 % 1029,7 hPa 0,0 l/m 3,9 km/h (1 Bft) S 180 0 min -0,3 C 9,0 C 3,1 km/h (1 Bft)
08.12.2016 11:40 6,9 C 2,8 C 6,3 C 9,3 C 9,3 C 2,4 C 60 % 68 % 63 % 1029,2 hPa 0,0 l/m 4,3 km/h (1 Bft) W-SW 247 0 min -0,3 C 9,3 C 7,1 km/h (2 Bft)
08.12.2016 11:45 7,1 C 2,8 C 6,3 C 9,8 C 9,8 C 2,7 C 60 % 68 % 71 % 1029,2 hPa 0,0 l/m 3,4 km/h (1 Bft) S-SW 202 0 min -0,1 C 9,8 C 5,3 km/h (1 Bft)
08.12.2016 11:50 7,2 C 2,8 C 6,3 C 9,6 C 9,6 C 2,4 C 59 % 67 % 63 % 1029,2 hPa 0,0 l/m 3,5 km/h (1 Bft) SW 225 0 min -0,3 C 9,6 C 3,1 km/h (1 Bft)
08.12.2016 11:55 7,3 C 2,9 C 6,4 C 9,5 C 9,5 C 2,2 C 58 % 67 % 58 % 1029,2 hPa 0,0 l/m 3,7 km/h (1 Bft) SW 225 0 min -0,4 C 9,5 C 2,4 km/h (1 Bft)
08.12.2016 12:00 7,5 C 2,9 C 6,7 C 9,5 C 9,5 C 2,0 C 58 % 66 % 53 % 1029,2 hPa 0,0 l/m 3,2 km/h (1 Bft) S 180 0 min -0,2 C 9,5 C 6,3 km/h (2 Bft)
08.12.2016 12:05 7,5 C 2,9 C 6,8 C 9,4 C 9,4 C 1,9 C 58 % 66 % 50 % 1029,2 hPa 0,0 l/m 2,9 km/h (1 Bft) S 180 0 min -0,2 C 9,4 C 5,1 km/h (1 Bft)
08.12.2016 12:10 7,6 C 2,9 C 6,9 C 9,5 C 9,5 C 1,9 C 57 % 65 % 50 % 1029,2 hPa 0,0 l/m 3,7 km/h (1 Bft) SO 135 0 min -0,4 C 9,5 C 4,8 km/h (1 Bft)
08.12.2016 12:15 7,9 C 2,9 C 7,1 C 9,4 C 9,4 C 1,5 C 56 % 64 % 39 % 1029,2 hPa 0,0 l/m 3,9 km/h (1 Bft) W-SW 247 0 min -0,3 C 9,4 C 4,5 km/h (1 Bft)
08.12.2016 12:20 7,9 C 2,9 C 7,1 C 9,5 C 9,5 C 1,6 C 56 % 65 % 42 % 1029,2 hPa 0,0 l/m 3,4 km/h (1 Bft) O 90 0 min -0,3 C 9,5 C 2,9 km/h (1 Bft)
08.12.2016 12:25 8,0 C 2,9 C 7,1 C 9,6 C 9,6 C 1,6 C 57 % 65 % 42 % 1029,2 hPa 0,0 l/m 2,4 km/h (1 Bft) O 90 0 min 0,0 C 9,6 C 0,0 km/h (0 Bft)
08.12.2016 12:30 8,0 C 3,0 C 7,1 C 9,6 C 9,6 C 1,6 C 56 % 65 % 42 % 1029,2 hPa 0,0 l/m 2,6 km/h (1 Bft) W-SW 247 0 min -0,2 C 9,6 C 5,3 km/h (1 Bft)
08.12.2016 12:35 8,3 C 3,0 C 7,3 C 9,6 C 9,6 C 1,3 C 55 % 64 % 34 % 1029,2 hPa 0,0 l/m 3,7 km/h (1 Bft) S-SW 202 0 min -0,2 C 9,6 C 6,3 km/h (2 Bft)
08.12.2016 12:40 8,3 C 3,0 C 7,3 C 9,9 C 9,9 C 1,6 C 55 % 64 % 42 % 1028,6 hPa 0,0 l/m 3,9 km/h (1 Bft) O-SO 112 0 min -0,2 C 9,9 C 3,9 km/h (1 Bft)
08.12.2016 12:45 8,4 C 3,0 C 7,4 C 10,2 C 10,2 C 1,8 C 55 % 63 % 47 % 1028,6 hPa 0,0 l/m 2,4 km/h (1 Bft) S 180 0 min -0,1 C 10,2 C 3,5 km/h (1 Bft)
08.12.2016 12:50 8,4 C 3,0 C 7,6 C 10,2 C 10,2 C 1,8 C 55 % 62 % 47 % 1028,6 hPa 0,0 l/m 2,1 km/h (1 Bft) S 180 0 min -0,1 C 10,2 C 2,1 km/h (1 Bft)
08.12.2016 12:55 8,5 C 3,0 C 7,6 C 10,4 C 10,4 C 1,9 C 55 % 62 % 50 % 1028,6 hPa 0,0 l/m 1,9 km/h (1 Bft) S-SO 157 0 min -0,0 C 10,4 C 0,0 km/h (0 Bft)
08.12.2016 13:00 8,6 C 3,2 C 7,7 C 10,4 C 10,4 C 1,8 C 54 % 62 % 47 % 1028,4 hPa 0,0 l/m 1,9 km/h (1 Bft) SW 225 0 min -0,2 C 10,4 C 2,7 km/h (1 Bft)
08.12.2016 13:05 8,7 C 3,1 C 7,9 C 10,6 C 10,6 C 1,9 C 53 % 62 % 50 % 1028,4 hPa 0,0 l/m 3,5 km/h (1 Bft) S-SW 202 0 min -0,3 C 10,6 C 6,9 km/h (2 Bft)
08.12.2016 13:10 8,8 C 3,1 C 7,9 C 11,0 C 11,0 C 2,2 C 53 % 61 % 58 % 1028,4 hPa 0,0 l/m 4,5 km/h (1 Bft) S 180 0 min -0,2 C 11,0 C 8,9 km/h (2 Bft)
08.12.2016 13:15 9,1 C 3,1 C 8,0 C 11,0 C 11,0 C 1,9 C 53 % 61 % 50 % 1028,4 hPa 0,0 l/m 3,7 km/h (1 Bft) SW 225 0 min 0,0 C 11,0 C 7,9 km/h (2 Bft)
08.12.2016 13:20 9,1 C 3,1 C 8,0 C 11,0 C 11,0 C 1,9 C 53 % 61 % 50 % 1028,4 hPa 0,0 l/m 3,2 km/h (1 Bft) SW 225 0 min 0,0 C 11,0 C 5,0 km/h (1 Bft)
08.12.2016 13:25 8,9 C 3,2 C 8,0 C 10,8 C 10,8 C 1,9 C 52 % 60 % 50 % 1028,4 hPa 0,0 l/m 3,5 km/h (1 Bft) N 360 0 min -0,4 C 10,8 C 5,1 km/h (1 Bft)
08.12.2016 13:30 8,9 C 3,2 C 8,0 C 10,7 C 10,7 C 1,8 C 52 % 60 % 47 % 1028,4 hPa 0,0 l/m 3,9 km/h (1 Bft) N-NO 22 0 min -0,4 C 10,7 C 2,4 km/h (1 Bft)
08.12.2016 13:35 8,9 C 3,2 C 8,1 C 11,1 C 11,1 C 2,2 C 53 % 60 % 58 % 1028,4 hPa 0,0 l/m 3,1 km/h (1 Bft) O 90 0 min -0,1 C 11,1 C 2,7 km/h (1 Bft)
08.12.2016 13:40 9,0 C 3,2 C 8,3 C 11,3 C 11,3 C 2,3 C 52 % 59 % 61 % 1028,2 hPa 0,0 l/m 3,2 km/h (1 Bft) O 90 0 min -0,3 C 11,3 C 4,3 km/h (1 Bft)
08.12.2016 13:45 9,1 C 3,2 C 8,3 C 11,4 C 11,4 C 2,3 C 52 % 60 % 61 % 1028,2 hPa 0,0 l/m 4,0 km/h (1 Bft) O 90 0 min -0,2 C 11,4 C 10,6 km/h (2 Bft)
08.12.2016 13:50 9,1 C 3,2 C 8,2 C 11,1 C 11,1 C 2,0 C 51 % 60 % 53 % 1028,2 hPa 0,0 l/m 5,1 km/h (1 Bft) SW 225 0 min -0,5 C 11,1 C 8,2 km/h (2 Bft)
08.12.2016 13:55 9,1 C 3,4 C 8,1 C 10,7 C 10,7 C 1,6 C 52 % 60 % 42 % 1028,2 hPa 0,0 l/m 5,8 km/h (2 Bft) SW 225 0 min -0,2 C 10,7 C 4,8 km/h (1 Bft)
08.12.2016 14:00 9,0 C 3,4 C 8,0 C 11,0 C 11,0 C 2,0 C 52 % 61 % 53 % 1028,4 hPa 0,0 l/m 4,5 km/h (1 Bft) S 180 0 min -0,3 C 11,0 C 4,8 km/h (1 Bft)
08.12.2016 14:05 9,1 C 3,4 C 7,9 C 10,8 C 10,8 C 1,7 C 53 % 61 % 45 % 1028,4 hPa 0,0 l/m 2,7 km/h (1 Bft) SW 225 0 min 0,0 C 10,8 C 1,6 km/h (1 Bft)
08.12.2016 14:10 8,9 C 3,4 C 7,9 C 10,9 C 10,9 C 2,0 C 53 % 61 % 53 % 1028,4 hPa 0,0 l/m 1,9 km/h (1 Bft) S 180 0 min -0,1 C 10,9 C 3,1 km/h (1 Bft)
08.12.2016 14:15 8,9 C 3,4 C 7,9 C 11,2 C 11,2 C 2,3 C 53 % 61 % 61 % 1028,4 hPa 0,0 l/m 1,3 km/h (1 Bft) S 180 0 min -0,1 C 11,2 C 5,6 km/h (1 Bft)
08.12.2016 14:20 8,9 C 3,4 C 7,9 C 11,2 C 11,2 C 2,3 C 53 % 61 % 61 % 1027,8 hPa 0,0 l/m 2,3 km/h (1 Bft) NW 315 0 min -0,1 C 11,2 C 1,6 km/h (1 Bft)
08.12.2016 14:25 8,9 C 3,4 C 7,7 C 10,8 C 10,8 C 1,9 C 53 % 61 % 50 % 1027,8 hPa 0,0 l/m 2,3 km/h (1 Bft) NO 45 0 min -0,1 C 10,8 C 6,4 km/h (2 Bft)
08.12.2016 14:30 8,8 C 3,5 C 7,6 C 10,8 C 10,8 C 2,0 C 53 % 62 % 53 % 1027,8 hPa 0,0 l/m 2,3 km/h (1 Bft) W-SW 247 0 min -0,2 C 10,8 C 5,0 km/h (1 Bft)
08.12.2016 14:35 8,8 C 3,5 C 7,6 C 10,9 C 10,9 C 2,1 C 54 % 62 % 55 % 1027,8 hPa 0,0 l/m 3,5 km/h (1 Bft) S 180 0 min 0,0 C 10,9 C 7,7 km/h (2 Bft)
08.12.2016 14:40 8,8 C 3,5 C 7,6 C 11,0 C 11,0 C 2,2 C 54 % 62 % 58 % 1027,8 hPa 0,0 l/m 4,3 km/h (1 Bft) W-SW 247 0 min 0,0 C 11,0 C 7,6 km/h (2 Bft)
08.12.2016 14:45 8,7 C 3,5 C 7,4 C 11,0 C 11,0 C 2,3 C 54 % 62 % 61 % 1027,8 hPa 0,0 l/m 3,9 km/h (1 Bft) SO 135 0 min -0,1 C 11,0 C 6,8 km/h (2 Bft)
08.12.2016 14:50 8,7 C 3,5 C 7,4 C 10,8 C 10,8 C 2,1 C 54 % 62 % 55 % 1027,8 hPa 0,0 l/m 2,9 km/h (1 Bft) O-SO 112 0 min -0,1 C 10,8 C 2,3 km/h (1 Bft)
08.12.2016 14:55 8,6 C 3,5 C 7,4 C 10,1 C 10,1 C 1,5 C 53 % 61 % 39 % 1027,8 hPa 0,0 l/m 3,1 km/h (1 Bft) SO 135 0 min -0,4 C 10,1 C 10,6 km/h (2 Bft)
08.12.2016 15:00 8,6 C 3,5 C 7,4 C 9,7 C 9,7 C 1,1 C 53 % 61 % 29 % 1027,8 hPa 0,0 l/m 3,2 km/h (1 Bft) O-SO 112 0 min -0,4 C 9,7 C 6,4 km/h (2 Bft)
08.12.2016 15:05 8,4 C 3,5 C 7,2 C 9,0 C 9,0 C 0,6 C 53 % 61 % 16 % 1027,8 hPa 0,0 l/m 3,5 km/h (1 Bft) SW 225 0 min -0,6 C 9,0 C 3,1 km/h (1 Bft)
08.12.2016 15:10 8,3 C 3,6 C 7,1 C 8,8 C 8,8 C 0,5 C 54 % 61 % 13 % 1027,8 hPa 0,0 l/m 3,2 km/h (1 Bft) O-SO 112 0 min -0,5 C 8,8 C 3,5 km/h (1 Bft)
08.12.2016 15:15 8,3 C 3,6 C 7,1 C 8,3 C 8,3 C 0,0 C 54 % 61 % 0 % 1027,8 hPa 0,0 l/m 3,9 km/h (1 Bft) W-SW 247 0 min -0,5 C 8,3 C 5,1 km/h (1 Bft)
08.12.2016 15:20 8,1 C 3,6 C 7,0 C 8,0 C 7,9 C 0,0 C 54 % 62 % 0 % 1027,6 hPa 0,0 l/m 4,3 km/h (1 Bft) NW 315 0 min -0,6 C 7,9 C 5,5 km/h (1 Bft)
08.12.2016 15:25 7,9 C 3,6 C 6,7 C 7,9 C 7,9 C 0,0 C 55 % 62 % 0 % 1027,6 hPa 0,0 l/m 3,5 km/h (1 Bft) W-SW 247 0 min -0,6 C 7,9 C 2,6 km/h (1 Bft)
08.12.2016 15:30 7,9 C 3,6 C 6,7 C 7,9 C 7,8 C 0,0 C 55 % 63 % 0 % 1027,6 hPa 0,0 l/m 3,1 km/h (1 Bft) NW 315 0 min -0,6 C 7,8 C 3,7 km/h (1 Bft)
08.12.2016 15:35 7,7 C 3,6 C 6,5 C 7,6 C 7,5 C 0,0 C 56 % 64 % 0 % 1027,6 hPa 0,0 l/m 2,9 km/h (1 Bft) S 180 0 min -0,5 C 7,5 C 5,3 km/h (1 Bft)
08.12.2016 15:40 7,6 C 3,6 C 6,4 C 7,5 C 7,4 C 0,0 C 56 % 64 % 0 % 1027,9 hPa 0,0 l/m 3,5 km/h (1 Bft) N-NW 337 0 min -0,6 C 7,4 C 4,5 km/h (1 Bft)
08.12.2016 15:45 7,6 C 3,6 C 6,3 C 7,5 C 7,3 C 0,0 C 56 % 64 % 0 % 1027,9 hPa 0,0 l/m 3,4 km/h (1 Bft) O 90 0 min -0,6 C 7,3 C 0,0 km/h (0 Bft)
08.12.2016 15:50 7,5 C 3,6 C 6,2 C 7,4 C 7,2 C 0,0 C 56 % 64 % 0 % 1027,9 hPa 0,0 l/m 2,7 km/h (1 Bft) S-SO 157 0 min -0,7 C 7,2 C 6,8 km/h (2 Bft)
08.12.2016 15:55 7,3 C 3,6 C 6,0 C 7,2 C 6,9 C 0,0 C 57 % 65 % 0 % 1027,9 hPa 0,0 l/m 3,5 km/h (1 Bft) W-SW 247 0 min -0,6 C 6,9 C 4,7 km/h (1 Bft)
08.12.2016 16:00 7,3 C 3,6 C 6,0 C 7,0 C 6,4 C 0,0 C 57 % 66 % 0 % 1027,7 hPa 0,0 l/m 4,7 km/h (1 Bft) W-SW 247 0 min -0,6 C 5,8 C 4,8 km/h (1 Bft)
08.12.2016 16:05 7,2 C 3,7 C 6,0 C 6,9 C 6,2 C 0,0 C 58 % 66 % 0 % 1027,7 hPa 0,0 l/m 5,5 km/h (1 Bft) S 180 0 min -0,5 C 5,3 C 6,8 km/h (2 Bft)
08.12.2016 16:10 7,2 C 3,7 C 6,0 C 6,9 C 6,4 C 0,0 C 58 % 66 % 0 % 1027,7 hPa 0,0 l/m 4,7 km/h (1 Bft) W-SW 247 0 min -0,5 C 5,8 C 4,2 km/h (1 Bft)
08.12.2016 16:15 7,2 C 3,7 C 6,0 C 6,9 C 6,4 C 0,0 C 58 % 66 % 0 % 1027,7 hPa 0,0 l/m 4,7 km/h (1 Bft) SO 135 0 min -0,5 C 5,8 C 12,4 km/h (3 Bft)
08.12.2016 16:20 7,1 C 3,7 C 6,0 C 6,9 C 6,4 C 0,0 C 59 % 67 % 0 % 1028,0 hPa 0,0 l/m 4,3 km/h (1 Bft) W-SW 247 0 min -0,4 C 6,4 C 6,4 km/h (2 Bft)
08.12.2016 16:25 6,9 C 3,7 C 5,9 C 6,8 C 6,7 C 0,0 C 60 % 67 % 0 % 1028,0 hPa 0,0 l/m 3,1 km/h (1 Bft) NW 315 0 min -0,3 C 6,7 C 2,7 km/h (1 Bft)
08.12.2016 16:30 6,9 C 3,7 C 5,9 C 6,8 C 6,5 C 0,0 C 60 % 67 % 0 % 1028,0 hPa 0,0 l/m 3,2 km/h (1 Bft) N-NO 22 0 min -0,3 C 6,5 C 4,3 km/h (1 Bft)
08.12.2016 16:35 6,9 C 3,7 C 5,7 C 6,7 C 6,4 C 0,0 C 60 % 68 % 0 % 1028,0 hPa 0,0 l/m 2,9 km/h (1 Bft) O-SO 112 0 min -0,3 C 6,4 C 3,4 km/h (1 Bft)
08.12.2016 16:40 6,8 C 3,7 C 5,7 C 6,7 C 6,4 C 0,0 C 60 % 68 % 0 % 1028,0 hPa 0,0 l/m 3,1 km/h (1 Bft) NW 315 0 min -0,4 C 6,4 C 2,4 km/h (1 Bft)
08.12.2016 16:45 6,7 C 3,7 C 5,4 C 6,5 C 6,2 C 0,0 C 61 % 68 % 0 % 1028,0 hPa 0,0 l/m 2,9 km/h (1 Bft) W 270 0 min -0,3 C 6,2 C 1,6 km/h (1 Bft)
08.12.2016 16:50 6,5 C 3,7 C 5,3 C 6,4 C 6,1 C 0,0 C 61 % 69 % 0 % 1028,0 hPa 0,0 l/m 2,4 km/h (1 Bft) S-SO 157 0 min -0,5 C 6,1 C 2,7 km/h (1 Bft)
08.12.2016 16:55 6,4 C 3,7 C 5,2 C 6,2 C 5,9 C 0,0 C 62 % 69 % 0 % 1028,0 hPa 0,0 l/m 2,3 km/h (1 Bft) SO 135 0 min -0,3 C 5,9 C 4,3 km/h (1 Bft)
08.12.2016 17:00 6,3 C 3,7 C 5,1 C 6,1 C 5,7 C 0,0 C 62 % 69 % 0 % 1028,0 hPa 0,0 l/m 1,8 km/h (1 Bft) SW 225 0 min -0,4 C 5,7 C 1,8 km/h (1 Bft)
08.12.2016 17:05 6,3 C 3,7 C 5,1 C 6,1 C 5,7 C 0,0 C 63 % 70 % 0 % 1028,0 hPa 0,0 l/m 1,9 km/h (1 Bft) N-NO 22 0 min -0,2 C 5,7 C 2,1 km/h (1 Bft)
08.12.2016 17:10 6,3 C 3,7 C 4,9 C 6,0 C 5,5 C 0,0 C 63 % 70 % 0 % 1028,0 hPa 0,0 l/m 2,4 km/h (1 Bft) S-SO 157 0 min -0,2 C 5,5 C 2,6 km/h (1 Bft)
08.12.2016 17:15 6,3 C 3,7 C 4,8 C 6,1 C 5,6 C 0,0 C 63 % 71 % 0 % 1028,0 hPa 0,0 l/m 3,5 km/h (1 Bft) SO 135 0 min -0,2 C 5,6 C 3,7 km/h (1 Bft)
08.12.2016 17:20 6,3 C 3,7 C 4,8 C 6,1 C 5,6 C 0,0 C 63 % 71 % 0 % 1028,0 hPa 0,0 l/m 3,1 km/h (1 Bft) N-NO 22 0 min -0,2 C 5,6 C 1,8 km/h (1 Bft)
08.12.2016 17:25 6,1 C 3,7 C 4,5 C 5,9 C 5,4 C 0,0 C 63 % 71 % 0 % 1028,0 hPa 0,0 l/m 1,3 km/h (1 Bft) O-NO 67 0 min -0,4 C 5,4 C 1,8 km/h (1 Bft)
08.12.2016 17:30 6,0 C 3,7 C 4,3 C 5,8 C 5,3 C 0,0 C 63 % 71 % 0 % 1028,0 hPa 0,0 l/m 1,0 km/h (0 Bft) S 180 0 min -0,5 C 5,3 C 2,4 km/h (1 Bft)
08.12.2016 17:35 6,0 C 3,7 C 4,4 C 5,8 C 5,3 C 0,0 C 63 % 72 % 0 % 1028,0 hPa 0,0 l/m 1,4 km/h (1 Bft) S 180 0 min -0,5 C 5,3 C 2,1 km/h (1 Bft)
08.12.2016 17:40 6,0 C 3,7 C 4,4 C 5,8 C 5,4 C 0,0 C 63 % 73 % 0 % 1028,0 hPa 0,0 l/m 2,4 km/h (1 Bft) N-NO 22 0 min -0,5 C 5,4 C 3,4 km/h (1 Bft)
08.12.2016 17:45 6,1 C 3,7 C 4,5 C 5,9 C 5,4 C 0,0 C 63 % 72 % 0 % 1028,0 hPa 0,0 l/m 1,8 km/h (1 Bft) SO 135 0 min -0,4 C 5,4 C 4,2 km/h (1 Bft)
08.12.2016 17:50 6,1 C 3,7 C 4,5 C 5,9 C 5,5 C 0,0 C 63 % 72 % 0 % 1028,0 hPa 0,0 l/m 1,3 km/h (1 Bft) SO 135 0 min -0,4 C 5,5 C 0,0 km/h (0 Bft)
08.12.2016 17:55 6,1 C 3,7 C 4,7 C 5,9 C 5,6 C 0,0 C 63 % 72 % 0 % 1028,0 hPa 0,0 l/m 2,1 km/h (1 Bft) SO 135 0 min -0,4 C 5,6 C 1,6 km/h (1 Bft)
08.12.2016 18:00 6,1 C 3,7 C 4,5 C 5,9 C 5,6 C 0,0 C 63 % 72 % 0 % 1028,0 hPa 0,0 l/m 1,9 km/h (1 Bft) SO 135 0 min -0,4 C 5,6 C 2,7 km/h (1 Bft)
08.12.2016 18:05 5,9 C 3,7 C 4,5 C 5,8 C 5,5 C 0,0 C 63 % 73 % 0 % 1028,0 hPa 0,0 l/m 1,3 km/h (1 Bft) S 180 0 min -0,6 C 5,5 C 2,9 km/h (1 Bft)
08.12.2016 18:10 5,9 C 3,7 C 4,4 C 5,8 C 5,6 C 0,0 C 64 % 73 % 0 % 1028,0 hPa 0,0 l/m 1,6 km/h (1 Bft) SW 225 0 min -0,4 C 5,6 C 3,1 km/h (1 Bft)
08.12.2016 18:15 5,9 C 3,7 C 4,5 C 5,8 C 5,6 C 0,0 C 64 % 73 % 0 % 1028,0 hPa 0,0 l/m 1,0 km/h (0 Bft) N-NO 22 0 min -0,4 C 5,6 C 0,0 km/h (0 Bft)
08.12.2016 18:20 5,9 C 3,8 C 4,5 C 5,8 C 5,6 C 0,0 C 64 % 73 % 0 % 1028,0 hPa 0,0 l/m 0,8 km/h (0 Bft) S 180 0 min -0,4 C 5,6 C 2,9 km/h (1 Bft)
08.12.2016 18:25 5,9 C 3,8 C 4,6 C 5,8 C 5,7 C 0,0 C 64 % 73 % 0 % 1028,0 hPa 0,0 l/m 1,4 km/h (1 Bft) W-SW 247 0 min -0,4 C 5,7 C 3,1 km/h (1 Bft)
08.12.2016 18:30 5,9 C 3,8 C 4,7 C 5,8 C 5,7 C 0,0 C 64 % 73 % 0 % 1028,0 hPa 0,0 l/m 1,9 km/h (1 Bft) S 180 0 min -0,4 C 5,7 C 3,4 km/h (1 Bft)
08.12.2016 18:35 6,1 C 3,8 C 4,7 C 6,0 C 5,9 C 0,0 C 64 % 73 % 0 % 1028,0 hPa 0,0 l/m 3,2 km/h (1 Bft) S 180 0 min -0,2 C 5,9 C 6,1 km/h (2 Bft)
08.12.2016 18:40 6,0 C 3,8 C 4,8 C 6,0 C 5,9 C 0,0 C 64 % 73 % 0 % 1028,0 hPa 0,0 l/m 3,4 km/h (1 Bft) SO 135 0 min -0,3 C 5,9 C 8,5 km/h (2 Bft)
08.12.2016 18:45 6,1 C 3,8 C 4,8 C 5,9 C 5,6 C 0,0 C 64 % 73 % 0 % 1028,0 hPa 0,0 l/m 4,0 km/h (1 Bft) O 90 0 min -0,2 C 5,6 C 11,3 km/h (2 Bft)
08.12.2016 18:50 6,1 C 3,8 C 4,9 C 5,9 C 5,4 C 0,0 C 64 % 73 % 0 % 1028,0 hPa 0,0 l/m 4,8 km/h (1 Bft) S-SW 202 0 min -0,2 C 4,6 C 8,9 km/h (2 Bft)
08.12.2016 18:55 6,2 C 3,8 C 5,0 C 5,9 C 5,4 C 0,0 C 64 % 73 % 0 % 1028,0 hPa 0,0 l/m 4,7 km/h (1 Bft) W 270 0 min -0,1 C 4,7 C 3,2 km/h (1 Bft)
08.12.2016 19:00 6,1 C 3,8 C 5,0 C 6,0 C 5,8 C 0,0 C 64 % 73 % 0 % 1028,0 hPa 0,0 l/m 3,5 km/h (1 Bft) S-SW 202 0 min -0,2 C 5,8 C 4,7 km/h (1 Bft)
08.12.2016 19:05 6,0 C 3,8 C 4,9 C 6,0 C 5,9 C 0,0 C 64 % 73 % 0 % 1028,0 hPa 0,0 l/m 3,2 km/h (1 Bft) S 180 0 min -0,3 C 5,9 C 4,8 km/h (1 Bft)
08.12.2016 19:10 6,1 C 3,8 C 5,1 C 5,8 C 5,3 C 0,0 C 64 % 73 % 0 % 1028,0 hPa 0,0 l/m 4,7 km/h (1 Bft) W-SW 247 0 min -0,2 C 4,5 C 5,8 km/h (2 Bft)
08.12.2016 19:15 6,0 C 3,8 C 5,1 C 5,7 C 5,1 C 0,0 C 64 % 72 % 0 % 1028,0 hPa 0,0 l/m 5,0 km/h (1 Bft) S 180 0 min -0,3 C 4,2 C 9,7 km/h (2 Bft)
08.12.2016 19:20 6,1 C 3,8 C 5,0 C 5,8 C 5,3 C 0,0 C 64 % 72 % 0 % 1028,6 hPa 0,0 l/m 4,3 km/h (1 Bft) S 180 0 min -0,2 C 5,3 C 6,6 km/h (2 Bft)
08.12.2016 19:25 6,0 C 3,8 C 5,0 C 5,9 C 5,6 C 0,0 C 65 % 72 % 0 % 1028,6 hPa 0,0 l/m 3,9 km/h (1 Bft) N-NO 22 0 min -0,1 C 5,6 C 2,4 km/h (1 Bft)
08.12.2016 19:30 5,9 C 3,8 C 5,0 C 5,7 C 5,4 C 0,0 C 65 % 72 % 0 % 1028,6 hPa 0,0 l/m 3,9 km/h (1 Bft) O-SO 112 0 min -0,2 C 5,4 C 3,5 km/h (1 Bft)
08.12.2016 19:35 5,9 C 3,8 C 5,1 C 5,8 C 5,7 C 0,0 C 65 % 72 % 0 % 1028,6 hPa 0,0 l/m 3,1 km/h (1 Bft) NW 315 0 min -0,2 C 5,7 C 2,7 km/h (1 Bft)
08.12.2016 19:40 5,9 C 3,8 C 5,1 C 5,8 C 5,7 C 0,0 C 65 % 72 % 0 % 1028,6 hPa 0,0 l/m 2,6 km/h (1 Bft) W-SW 247 0 min -0,2 C 5,7 C 1,9 km/h (1 Bft)
08.12.2016 19:45 5,9 C 3,8 C 5,0 C 5,7 C 5,2 C 0,0 C 65 % 72 % 0 % 1028,6 hPa 0,0 l/m 4,2 km/h (1 Bft) S-SW 202 0 min -0,2 C 5,2 C 19,5 km/h (3 Bft)
08.12.2016 19:50 5,9 C 3,8 C 5,1 C 5,5 C 4,8 C 0,0 C 65 % 71 % 0 % 1028,6 hPa 0,0 l/m 5,3 km/h (1 Bft) W-SW 247 0 min -0,2 C 3,7 C 4,5 km/h (1 Bft)
08.12.2016 19:55 5,7 C 3,8 C 5,1 C 5,6 C 5,3 C 0,0 C 65 % 72 % 0 % 1028,6 hPa 0,0 l/m 4,0 km/h (1 Bft) W-SW 247 0 min -0,4 C 5,3 C 9,7 km/h (2 Bft)
08.12.2016 20:00 5,7 C 3,8 C 5,1 C 5,6 C 5,4 C 0,0 C 66 % 72 % 0 % 1028,4 hPa 0,0 l/m 3,7 km/h (1 Bft) W-SW 247 0 min -0,1 C 5,4 C 5,1 km/h (1 Bft)
08.12.2016 20:05 5,6 C 3,8 C 4,8 C 5,5 C 5,4 C 0,0 C 66 % 72 % 0 % 1028,4 hPa 0,0 l/m 3,7 km/h (1 Bft) W-SW 247 0 min -0,2 C 5,4 C 3,2 km/h (1 Bft)
08.12.2016 20:10 5,6 C 3,8 C 4,8 C 5,6 C 5,6 C 0,0 C 66 % 73 % 0 % 1028,4 hPa 0,0 l/m 3,2 km/h (1 Bft) S 180 0 min -0,2 C 5,6 C 5,3 km/h (1 Bft)
08.12.2016 20:15 5,6 C 3,8 C 4,8 C 5,5 C 5,4 C 0,0 C 66 % 73 % 0 % 1028,4 hPa 0,0 l/m 3,5 km/h (1 Bft) O-SO 112 0 min -0,2 C 5,4 C 3,9 km/h (1 Bft)
08.12.2016 20:20 5,6 C 3,8 C 4,8 C 5,5 C 5,2 C 0,0 C 66 % 73 % 0 % 1029,1 hPa 0,0 l/m 4,0 km/h (1 Bft) NW 315 0 min -0,2 C 5,2 C 5,1 km/h (1 Bft)
08.12.2016 20:25 5,5 C 3,8 C 4,7 C 5,3 C 5,0 C 0,0 C 66 % 73 % 0 % 1029,1 hPa 0,0 l/m 4,2 km/h (1 Bft) SO 135 0 min -0,3 C 5,0 C 9,0 km/h (2 Bft)
08.12.2016 20:30 5,5 C 3,8 C 4,8 C 5,4 C 5,2 C 0,0 C 66 % 73 % 0 % 1029,1 hPa 0,0 l/m 3,7 km/h (1 Bft) SO 135 0 min -0,3 C 5,2 C 3,7 km/h (1 Bft)
08.12.2016 20:35 5,5 C 3,8 C 4,7 C 5,4 C 5,3 C 0,0 C 67 % 73 % 0 % 1029,1 hPa 0,0 l/m 3,2 km/h (1 Bft) NO 45 0 min -0,1 C 5,3 C 2,1 km/h (1 Bft)
08.12.2016 20:40 5,4 C 3,8 C 4,7 C 5,3 C 5,1 C 0,0 C 67 % 73 % 0 % 1029,1 hPa 0,0 l/m 3,7 km/h (1 Bft) SO 135 0 min -0,2 C 5,1 C 4,8 km/h (1 Bft)
08.12.2016 20:45 5,3 C 3,8 C 4,7 C 5,2 C 5,1 C 0,0 C 67 % 73 % 0 % 1029,1 hPa 0,0 l/m 3,7 km/h (1 Bft) N-NO 22 0 min -0,3 C 5,1 C 5,1 km/h (1 Bft)
08.12.2016 20:50 5,3 C 3,8 C 4,7 C 5,1 C 4,8 C 0,0 C 67 % 73 % 0 % 1029,1 hPa 0,0 l/m 4,2 km/h (1 Bft) S 180 0 min -0,3 C 4,8 C 9,5 km/h (2 Bft)
08.12.2016 20:55 5,3 C 3,8 C 4,7 C 5,1 C 4,8 C 0,0 C 67 % 73 % 0 % 1029,1 hPa 0,0 l/m 4,2 km/h (1 Bft) SO 135 0 min -0,3 C 4,8 C 3,5 km/h (1 Bft)
08.12.2016 21:00 5,3 C 3,8 C 4,7 C 5,1 C 4,8 C 0,0 C 67 % 73 % 0 % 1029,1 hPa 0,0 l/m 4,2 km/h (1 Bft) SW 225 0 min -0,3 C 4,8 C 5,0 km/h (1 Bft)
08.12.2016 21:05 5,2 C 3,8 C 4,7 C 5,1 C 4,9 C 0,0 C 67 % 73 % 0 % 1029,1 hPa 0,0 l/m 4,0 km/h (1 Bft) O-NO 67 0 min -0,4 C 4,9 C 3,1 km/h (1 Bft)
08.12.2016 21:10 5,2 C 3,8 C 4,5 C 5,1 C 4,8 C 0,0 C 67 % 73 % 0 % 1029,1 hPa 0,0 l/m 4,2 km/h (1 Bft) SO 135 0 min -0,4 C 4,8 C 6,9 km/h (2 Bft)
08.12.2016 21:15 5,2 C 3,8 C 4,7 C 5,1 C 5,0 C 0,0 C 68 % 73 % 0 % 1029,1 hPa 0,0 l/m 3,9 km/h (1 Bft) S-SO 157 0 min -0,2 C 5,0 C 7,4 km/h (2 Bft)
08.12.2016 21:20 5,3 C 3,8 C 4,6 C 5,1 C 4,8 C 0,0 C 68 % 74 % 0 % 1028,2 hPa 0,0 l/m 4,2 km/h (1 Bft) SW 225 0 min -0,1 C 4,8 C 9,5 km/h (2 Bft)
08.12.2016 21:25 5,3 C 3,8 C 4,7 C 5,1 C 4,8 C 0,0 C 67 % 73 % 0 % 1028,2 hPa 0,0 l/m 4,5 km/h (1 Bft) S 180 0 min -0,3 C 4,8 C 2,4 km/h (1 Bft)
08.12.2016 21:30 5,3 C 3,8 C 4,7 C 5,2 C 5,1 C 0,0 C 67 % 73 % 0 % 1028,2 hPa 0,0 l/m 3,9 km/h (1 Bft) N-NO 22 0 min -0,3 C 5,1 C 3,1 km/h (1 Bft)
08.12.2016 21:35 5,3 C 3,8 C 4,7 C 5,2 C 5,1 C 0,0 C 68 % 73 % 0 % 1028,2 hPa 0,0 l/m 4,0 km/h (1 Bft) S 180 0 min -0,1 C 5,1 C 5,8 km/h (2 Bft)
08.12.2016 21:40 5,3 C 3,8 C 4,7 C 5,1 C 4,8 C 0,0 C 68 % 73 % 0 % 1028,2 hPa 0,0 l/m 4,5 km/h (1 Bft) N-NW 337 0 min -0,1 C 4,8 C 5,6 km/h (1 Bft)
08.12.2016 21:45 5,4 C 3,8 C 4,7 C 5,3 C 5,1 C 0,0 C 68 % 73 % 0 % 1028,2 hPa 0,0 l/m 4,2 km/h (1 Bft) S-SO 157 0 min -0,0 C 5,1 C 3,1 km/h (1 Bft)
08.12.2016 21:50 5,4 C 3,8 C 4,9 C 5,2 C 4,8 C 0,0 C 67 % 73 % 0 % 1028,2 hPa 0,0 l/m 4,8 km/h (1 Bft) S-SW 202 0 min -0,2 C 3,9 C 3,5 km/h (1 Bft)
08.12.2016 21:55 5,5 C 3,8 C 4,8 C 5,2 C 4,7 C 0,0 C 67 % 73 % 0 % 1028,2 hPa 0,0 l/m 5,5 km/h (1 Bft) S-SW 202 0 min -0,1 C 3,6 C 10,3 km/h (2 Bft)
08.12.2016 22:00 5,6 C 3,8 C 4,8 C 5,3 C 4,8 C 0,0 C 67 % 73 % 0 % 1028,2 hPa 0,0 l/m 5,1 km/h (1 Bft) W-SW 247 0 min -0,0 C 3,8 C 7,4 km/h (2 Bft)
08.12.2016 22:05 5,5 C 3,8 C 4,8 C 5,4 C 5,1 C 0,0 C 67 % 73 % 0 % 1028,2 hPa 0,0 l/m 4,5 km/h (1 Bft) S 180 0 min -0,1 C 5,1 C 5,0 km/h (1 Bft)
08.12.2016 22:10 5,5 C 3,8 C 4,8 C 5,4 C 5,1 C 0,0 C 67 % 73 % 0 % 1028,2 hPa 0,0 l/m 4,5 km/h (1 Bft) SW 225 0 min -0,1 C 5,1 C 6,8 km/h (2 Bft)
08.12.2016 22:15 5,5 C 3,8 C 4,7 C 5,4 C 5,1 C 0,0 C 67 % 74 % 0 % 1028,2 hPa 0,0 l/m 4,5 km/h (1 Bft) W 270 0 min -0,1 C 5,1 C 6,0 km/h (2 Bft)
08.12.2016 22:20 5,5 C 3,8 C 4,7 C 5,4 C 5,3 C 0,0 C 68 % 74 % 0 % 1028,2 hPa 0,0 l/m 4,0 km/h (1 Bft) S-SO 157 0 min 0,1 C 5,3 C 8,4 km/h (2 Bft)
08.12.2016 22:25 5,5 C 3,8 C 4,7 C 5,4 C 5,3 C 0,0 C 68 % 74 % 0 % 1028,2 hPa 0,0 l/m 3,9 km/h (1 Bft) W-SW 247 0 min 0,1 C 5,3 C 8,4 km/h (2 Bft)
08.12.2016 22:30 5,6 C 3,8 C 4,8 C 5,5 C 5,4 C 0,0 C 68 % 74 % 0 % 1028,2 hPa 0,0 l/m 3,7 km/h (1 Bft) W-SW 247 0 min 0,2 C 5,4 C 3,5 km/h (1 Bft)
08.12.2016 22:35 5,5 C 3,8 C 4,9 C 5,5 C 5,4 C 0,0 C 68 % 74 % 0 % 1028,2 hPa 0,0 l/m 3,7 km/h (1 Bft) W 270 0 min 0,1 C 5,4 C 5,8 km/h (2 Bft)
08.12.2016 22:40 5,6 C 3,8 C 4,8 C 5,5 C 5,2 C 0,0 C 68 % 74 % 0 % 1028,2 hPa 0,0 l/m 4,2 km/h (1 Bft) SO 135 0 min 0,2 C 5,2 C 7,1 km/h (2 Bft)
08.12.2016 22:45 5,6 C 3,8 C 4,8 C 5,3 C 4,8 C 0,0 C 69 % 74 % 0 % 1028,2 hPa 0,0 l/m 5,1 km/h (1 Bft) O-SO 112 0 min 0,4 C 3,8 C 10,1 km/h (2 Bft)
08.12.2016 22:50 5,6 C 3,8 C 4,8 C 5,4 C 5,0 C 0,0 C 69 % 74 % 0 % 1028,2 hPa 0,0 l/m 4,7 km/h (1 Bft) W-SW 247 0 min 0,4 C 4,2 C 4,5 km/h (1 Bft)
08.12.2016 22:55 5,5 C 3,8 C 4,7 C 5,4 C 5,1 C 0,0 C 69 % 75 % 0 % 1028,2 hPa 0,0 l/m 4,0 km/h (1 Bft) NW 315 0 min 0,3 C 5,1 C 4,8 km/h (1 Bft)
08.12.2016 23:00 5,5 C 3,8 C 4,7 C 5,3 C 4,8 C 0,0 C 69 % 75 % 0 % 1027,7 hPa 0,0 l/m 4,2 km/h (1 Bft) SO 135 0 min 0,3 C 4,8 C 2,4 km/h (1 Bft)
08.12.2016 23:05 5,4 C 3,8 C 4,3 C 5,2 C 4,8 C 0,0 C 69 % 75 % 0 % 1027,7 hPa 0,0 l/m 3,4 km/h (1 Bft) W-SW 247 0 min 0,2 C 4,8 C 3,4 km/h (1 Bft)
08.12.2016 23:10 5,4 C 3,8 C 4,3 C 5,2 C 4,7 C 0,0 C 69 % 75 % 0 % 1027,7 hPa 0,0 l/m 2,9 km/h (1 Bft) W-SW 247 0 min 0,2 C 4,7 C 3,5 km/h (1 Bft)
08.12.2016 23:15 5,2 C 3,8 C 4,1 C 4,9 C 4,4 C 0,0 C 69 % 76 % 0 % 1027,7 hPa 0,0 l/m 3,1 km/h (1 Bft) SO 135 0 min -0,0 C 4,4 C 5,8 km/h (2 Bft)
08.12.2016 23:20 5,3 C 3,8 C 4,0 C 4,9 C 4,1 C 0,0 C 69 % 76 % 0 % 1028,0 hPa 0,0 l/m 3,2 km/h (1 Bft) N-NW 337 0 min 0,1 C 4,1 C 4,7 km/h (1 Bft)
08.12.2016 23:25 5,0 C 3,8 C 3,9 C 4,6 C 3,8 C 0,0 C 70 % 76 % 0 % 1028,0 hPa 0,0 l/m 3,5 km/h (1 Bft) SW 225 0 min -0,0 C 3,8 C 10,6 km/h (2 Bft)
08.12.2016 23:30 5,0 C 3,8 C 3,9 C 4,6 C 3,8 C 0,0 C 70 % 76 % 0 % 1028,0 hPa 0,0 l/m 3,2 km/h (1 Bft) SW 225 0 min -0,0 C 3,8 C 3,1 km/h (1 Bft)
08.12.2016 23:35 5,1 C 3,8 C 3,7 C 4,7 C 4,0 C 0,0 C 70 % 77 % 0 % 1028,0 hPa 0,0 l/m 2,9 km/h (1 Bft) SO 135 0 min 0,1 C 4,0 C 1,8 km/h (1 Bft)
08.12.2016 23:40 4,9 C 3,8 C 3,7 C 4,6 C 3,9 C 0,0 C 70 % 77 % 0 % 1028,0 hPa 0,0 l/m 2,3 km/h (1 Bft) SW 225 0 min -0,1 C 3,9 C 6,1 km/h (2 Bft)
08.12.2016 23:45 4,9 C 3,8 C 3,9 C 4,6 C 4,0 C 0,0 C 70 % 77 % 0 % 1028,0 hPa 0,0 l/m 2,4 km/h (1 Bft) W 270 0 min -0,1 C 4,0 C 3,4 km/h (1 Bft)
08.12.2016 23:50 4,9 C 3,8 C 3,9 C 4,6 C 4,0 C 0,0 C 70 % 77 % 0 % 1028,0 hPa 0,0 l/m 3,1 km/h (1 Bft) S 180 0 min -0,1 C 4,0 C 11,4 km/h (2 Bft)
08.12.2016 23:55 4,9 C 3,8 C 4,0 C 4,7 C 4,4 C 0,0 C 70 % 77 % 0 % 1028,0 hPa 0,0 l/m 2,9 km/h (1 Bft) SO 135 0 min -0,1 C 4,4 C 5,0 km/h (1 Bft)
_ Min-Zeit 02:45 00:00 02:45 02:45 07:05 00:15 13:50 13:40 00:00 15:20 - 01:30 - - - 15:50 07:10 00:55
Minimum _ 4,5 C 1,9 C 2,9 C 4,3 C 3,6 C 0,0 C 51 % 59 % 0 % 1027,6 hPa - 0,3 km/h (0 Bft) - - - -0,7 C 2,5 C 0,0 km/h (0 Bft)
_ Max-Zeit 13:15 18:20 13:40 13:45 13:45 11:45 02:50 02:05 11:45 00:00 00:00 11:20 - - 00:00 00:15 13:45 19:45
Maximum _ 9,1 C 3,8 C 8,3 C 11,4 C 11,4 C 2,7 C 77 % 85 % 71 % 1031,4 hPa 0,0 l/m 6,1 km/h
S-SO (2 Bft)
- - 0 min 1,4 C 11,4 C 19,5 km/h
S-SW (3 Bft)
Durchschnitt _ 6,0 C 3,0 C 4,8 C 6,2 C 6,0 C 0,4 C 67 % 75 % 10 % 1029,3 hPa #0,0 l/m 3,1 km/h (1 Bft) S - #0 min. 0,2 C 5,9 C 4,6 km/h (1 Bft)
2016 www.wetterstation-wechselburg.de